Simultaneous Nadir Overpasses (SNOs) Predictions

Prediction of SNOs between METOP-B and TERRA Satellite Orbit:

Table of predicted SNOs for the next 14.0 days since TLE Epoch: 5/28/2022
Index Date (METOP-B) Time (METOP-B) Lat,Lon (METOP-B) SZA (METOP-B ) Date (TERRA) Time (TERRA) Lat,Lon (TERRA) SZA (TERRA ) Distance(km) Time Diff (sec)
1 05/28/2022 08:39:19 81.17, 91.02 62.01 05/28/2022 08:40:01 81.16, 91.06 62.03 0.73 42
2 05/28/2022 09:29:58 -81.19,-100.97 117.92 05/28/2022 09:29:27 -81.18,-101.06 117.95 1.77 31
3 05/31/2022 04:13:42 81.17, 157.63 61.60 05/31/2022 04:14:06 81.18, 157.78 61.63 2.80 24
4 05/31/2022 05:04:21 -81.20, -34.33 118.32 05/31/2022 05:03:32 -81.20, -34.31 118.33 0.59 49
5 06/02/2022 23:48:04 81.19,-135.44 61.28 06/02/2022 23:48:11 81.19,-135.64 61.27 3.27 7
6 06/03/2022 00:38:45 -81.19, 31.88 118.73 06/03/2022 00:37:38 -81.19, 31.93 118.75 1.05 67
7 06/05/2022 18:31:48 -81.16, 122.76 119.16 06/05/2022 18:32:50 -81.17, 122.82 119.13 1.12 62
8 06/05/2022 19:22:27 81.18, -69.34 60.91 06/05/2022 19:22:15 81.19, -69.20 60.93 2.53 12
9 06/08/2022 14:06:11 -81.17,-170.77 119.44 06/08/2022 14:06:55 -81.16,-170.86 119.44 1.68 44



Historial Predications of SNOs between METOP-B and TERRA
